Location: Hohe Wand Kleine Kanzel
(47.8330°N, 16.0170°E)
Time: 19:14:44
(UTC+02:00)

A-11 Canister half - Visible Passes

Search period start: 28 July 2021 00:00
Search period end: 07 August 2021 00:00
Orbit: 1513 x 1687 km, 47.2° (Epoch: 28 July)

Date Brightness Start Highest point End Pass type
(mag) Time Alt. Az. Time Alt. Az. Time Alt. Az.
28 Jul 9.2 00:57:49 10° WNW 01:07:30 51° SW 01:12:04 32° SSE visible
28 Jul 10.2 03:04:32 10° W 03:10:07 18° WSW 03:10:07 18° WSW visible
28 Jul 9.1 22:29:46 10° W 22:39:55 84° S 22:50:09 10° ESE visible
29 Jul 9.2 00:34:51 10° WNW 00:44:36 53° SSW 00:49:01 34° SSE visible
29 Jul 10.2 02:41:19 10° W 02:47:06 19° WSW 02:47:06 19° WSW visible
29 Jul 9.2 22:06:48 10° W 22:16:57 85° S 22:27:12 10° ESE visible
30 Jul 9.2 00:11:53 10° WNW 00:21:41 55° SSW 00:26:15 34° SSE visible
30 Jul 10.2 02:18:08 10° W 02:24:21 21° WSW 02:24:21 21° WSW visible
30 Jul 9.2 21:43:51 10° W 21:53:59 86° S 22:04:14 10° E visible
30 Jul 9.2 23:48:55 10° WNW 23:58:46 58° SSW 00:03:38 33° SSE visible
31 Jul 10.1 01:55:00 10° W 02:01:45 23° SW 02:01:45 23° SW visible
31 Jul 9.2 21:20:55 10° W 21:31:01 87° S 21:41:15 10° E visible
31 Jul 9.2 23:25:58 10° WNW 23:35:50 60° SSW 23:41:10 31° SE visible
01 Aug 10.1 01:31:52 10° W 01:39:18 24° SW 01:39:18 24° SW visible
01 Aug 9.2 20:57:59 10° W 21:08:02 87° S 21:18:18 10° E visible
01 Aug 9.2 23:03:00 10° WNW 23:12:55 62° SSW 23:18:48 28° SE visible
02 Aug 10.0 01:08:47 10° W 01:16:34 26° SW 01:16:56 26° SW visible
02 Aug 9.2 22:40:04 10° WNW 22:49:59 64° SSW 22:56:31 25° SE visible
03 Aug 10.0 00:45:42 10° W 00:53:43 28° SW 00:54:40 27° SW visible
03 Aug 9.2 22:17:07 10° WNW 22:27:03 66° SSW 22:34:18 22° SE visible
04 Aug 9.9 00:22:40 10° W 00:30:51 29° SW 00:32:27 28° SSW visible
04 Aug 9.2 21:54:10 10° WNW 22:04:07 68° SSW 22:12:09 18° SE visible
04 Aug 9.9 23:59:37 10° WNW 00:08:00 31° SW 00:10:18 28° SSW visible
05 Aug 9.3 21:31:14 10° WNW 21:41:11 70° SSW 21:50:03 15° SE visible
05 Aug 9.9 23:36:35 10° WNW 23:45:09 33° SW 23:48:13 28° SSW visible
06 Aug 9.3 21:08:18 10° WNW 21:18:14 71° SSW 21:28:01 11° ESE visible
06 Aug 9.9 23:13:34 10° WNW 23:22:17 35° SW 23:26:10 26° S visible
